Check out our new BloomSky Weather System.

Active alerts


No alerts


Thunder radar  blitzortung!


Rain radar more information rain snow radar


Visit our other weather sites:

Template documentation
and downloads

And another site



Weather Underground History page Text

Daily Summary for May 23, 2017 Units:  Metric    English   Both
« Previous Day
Next Day »
Daily Weekly Monthly Yearly Custom
  High: Low: Average:
Temperature: -17.8 °C 17.7 °C 22.9 °C
Dew Point: -17.8 °C 16.5 °C 18.7 °C
Humidity: Humidity % 52 % 79 %
Wind Speed: 0 km/h 0 km/h 4.5 km/h
Wind Gust: 0 km/h - -
Wind:- - WNW
Pressure: 0 hPa 1006 hPa -
Precipitation: 0.51 mm    
Historical Graphs
 
 
Tabular Data for May 23, 2017
Time Temperature Dew Point Pressure Wind Wind Speed Wind Gust Humidity Rainfall Rate (Hourly)
-17.8 °C -17.8 °C 0 hPa Calm     Humidity % 0 mm
00:01 19.9 °C 18.6 °C 1011.1 hPa NW 3.2 km/h 9.7 km/h 92 % 0 mm
00:06 19.9 °C 18.6 °C 1011.1 hPa WNW 4.8 km/h 16.1 km/h 92 % 0 mm
00:11 19.9 °C 18.6 °C 1011.1 hPa NW 4.8 km/h 16.1 km/h 92 % 0 mm
00:16 19.9 °C 18.6 °C 1011.1 hPa North 6.4 km/h 19.3 km/h 92 % 0 mm
00:21 20 °C 18.5 °C 1011.1 hPa NW 3.2 km/h 19.3 km/h 91 % 0 mm
00:26 20 °C 18.5 °C 1011.1 hPa NNW 8 km/h 19.3 km/h 91 % 0 mm
00:31 20.1 °C 18.6 °C 1011.4 hPa NNW 4.8 km/h 12.9 km/h 91 % 0 mm
00:36 20.1 °C 18.6 °C 1011.4 hPa NW 6.4 km/h 12.9 km/h 91 % 0 mm
00:41 20.1 °C 18.6 °C 1011.4 hPa North 1.6 km/h 11.3 km/h 91 % 0 mm
00:43 20.1 °C 18.6 °C 1011.4 hPa NNE 1.6 km/h 11.3 km/h 91 % 0 mm
00:48 20.1 °C 18.6 °C 1011.4 hPa North 1.6 km/h 12.9 km/h 91 % 0 mm
00:53 20.1 °C 18.6 °C 1011.4 hPa Calm   12.9 km/h 91 % 0 mm
00:58 20.1 °C 18.6 °C 1011.4 hPa NNW 1.6 km/h 12.9 km/h 91 % 0 mm
00:59 20.1 °C 18.6 °C 1011.4 hPa NNW 1.6 km/h 12.9 km/h 91 % 0 mm
01:04 20.1 °C 18.6 °C 1011.4 hPa NNW 3.2 km/h 6.4 km/h 91 % 0 mm
01:09 20.1 °C 18.6 °C 1011.1 hPa Calm   6.4 km/h 91 % 0 mm
01:14 20.1 °C 18.6 °C 1011.1 hPa NW 3.2 km/h 4.8 km/h 91 % 0 mm
01:19 20.1 °C 18.6 °C 1011.4 hPa NW 3.2 km/h 6.4 km/h 91 % 0 mm
01:24 20.1 °C 18.6 °C 1011.4 hPa NNW 1.6 km/h 6.4 km/h 91 % 0 mm
01:29 20.1 °C 18.6 °C 1011.4 hPa NW 1.6 km/h 6.4 km/h 91 % 0 mm
01:34 20.1 °C 18.6 °C 1011.4 hPa Calm   6.4 km/h 91 % 0 mm
01:39 20.1 °C 18.6 °C 1011.4 hPa NW 1.6 km/h 6.4 km/h 91 % 0 mm
01:44 20.1 °C 18.8 °C 1011.4 hPa NNW 3.2 km/h 6.4 km/h 92 % 0 mm
01:49 20.1 °C 18.8 °C 1011.4 hPa NNW 6.4 km/h 6.4 km/h 92 % 0 mm
01:54 20.1 °C 18.8 °C 1011.4 hPa NNW 1.6 km/h 8 km/h 92 % 0 mm
01:59 20.1 °C 18.8 °C 1011.4 hPa WNW 1.6 km/h 8 km/h 92 % 0 mm
02:04 20 °C 18.7 °C 1011.4 hPa NW 1.6 km/h 8 km/h 92 % 0 mm
02:09 19.9 °C 18.6 °C 1011.1 hPa Calm   8 km/h 92 % 0 mm
02:14 19.9 °C 18.6 °C 1011.1 hPa WNW 1.6 km/h 4.8 km/h 92 % 0 mm
02:19 19.9 °C 18.6 °C 1011.1 hPa Calm   4.8 km/h 92 % 0 mm
02:24 19.9 °C 18.6 °C 1011.1 hPa NW 1.6 km/h 4.8 km/h 92 % 0 mm
02:30 19.9 °C 18.6 °C 1011.1 hPa NNW 3.2 km/h 4.8 km/h 92 % 0 mm
02:35 19.9 °C 18.6 °C 1011.1 hPa Calm   6.4 km/h 92 % 0 mm
02:40 19.9 °C 18.6 °C 1010.7 hPa Calm   6.4 km/h 92 % 0 mm
02:45 19.9 °C 18.6 °C 1010.7 hPa NW 1.6 km/h 6.4 km/h 92 % 0 mm
02:50 19.9 °C 18.6 °C 1010.7 hPa NW 1.6 km/h 3.2 km/h 92 % 0 mm
02:55 19.9 °C 18.6 °C 1010.7 hPa NW 1.6 km/h 3.2 km/h 92 % 0 mm
03:00 19.9 °C 18.6 °C 1010.7 hPa NW 1.6 km/h 3.2 km/h 92 % 0 mm
03:05 19.8 °C 18.5 °C 1010.4 hPa Calm   3.2 km/h 92 % 0 mm
03:10 19.8 °C 18.5 °C 1010.4 hPa Calm   3.2 km/h 92 % 0 mm
03:15 19.8 °C 18.5 °C 1010 hPa Calm   1.6 km/h 92 % 0 mm
03:20 19.8 °C 18.5 °C 1010 hPa Calm   1.6 km/h 92 % 0 mm
03:25 19.8 °C 18.5 °C 1010 hPa Calm   1.6 km/h 92 % 0 mm
03:30 19.8 °C 18.6 °C 1010.4 hPa Calm     93 % 0 mm
03:35 19.7 °C 18.5 °C 1010 hPa NNW 1.6 km/h 1.6 km/h 93 % 0 mm
03:40 19.7 °C 18.5 °C 1010 hPa Calm   1.6 km/h 93 % 0 mm
03:45 19.7 °C 18.5 °C 1010.4 hPa Calm   1.6 km/h 93 % 0 mm
03:50 19.8 °C 18.6 °C 1010 hPa Calm   1.6 km/h 93 % 0 mm
03:55 19.8 °C 18.6 °C 1010.4 hPa NNW 1.6 km/h 1.6 km/h 93 % 0 mm
04:00 19.7 °C 18.5 °C 1010.4 hPa Calm   4.8 km/h 93 % 0 mm
04:05 19.8 °C 18.6 °C 1010.4 hPa Calm   4.8 km/h 93 % 0 mm
04:10 19.8 °C 18.6 °C 1010.4 hPa Calm   4.8 km/h 93 % 0 mm
04:15 19.8 °C 18.6 °C 1010.4 hPa Calm   3.2 km/h 93 % 0 mm
04:20 19.8 °C 18.6 °C 1010.4 hPa Calm   3.2 km/h 93 % 0 mm
04:25 19.8 °C 18.6 °C 1010.4 hPa Calm   3.2 km/h 93 % 0 mm
04:30 19.8 °C 18.6 °C 1010.7 hPa NW 1.6 km/h 3.2 km/h 93 % 0 mm
04:35 19.7 °C 18.5 °C 1010.7 hPa NW 1.6 km/h 3.2 km/h 93 % 0 mm
04:40 19.7 °C 18.5 °C 1010.7 hPa NW 1.6 km/h 3.2 km/h 93 % 0 mm
04:45 19.7 °C 18.5 °C 1010.7 hPa NW 1.6 km/h 4.8 km/h 93 % 0 mm
04:50 19.7 °C 18.5 °C 1011.1 hPa NW 1.6 km/h 4.8 km/h 93 % 0 mm
04:55 19.7 °C 18.5 °C 1011.1 hPa NW 1.6 km/h 4.8 km/h 93 % 0 mm
05:00 19.7 °C 18.5 °C 1010.4 hPa Calm   4.8 km/h 93 % 0 mm
05:05 19.7 °C 18.5 °C 1010.7 hPa Calm   4.8 km/h 93 % 0 mm
05:10 19.7 °C 18.5 °C 1010.4 hPa Calm   4.8 km/h 93 % 0 mm
05:15 19.7 °C 18.5 °C 1010.7 hPa WNW 1.6 km/h 3.2 km/h 93 % 0 mm
05:20 19.6 °C 18.3 °C 1010.7 hPa NW 3.2 km/h 4.8 km/h 92 % 0 mm
05:25 19.6 °C 18.3 °C 1010.4 hPa NNW 6.4 km/h 6.4 km/h 92 % 0 mm
05:30 19.6 °C 18.3 °C 1010.4 hPa Calm   6.4 km/h 92 % 0 mm
05:35 19.6 °C 18.3 °C 1010.4 hPa Calm   6.4 km/h 92 % 0 mm
05:37 19.6 °C 18.3 °C 1010.4 hPa Calm   6.4 km/h 92 % 0 mm
05:42 19.6 °C 18.3 °C 1010 hPa Calm   6.4 km/h 92 % 0 mm
05:47 19.6 °C 18.3 °C 1010 hPa Calm   4.8 km/h 92 % 0 mm
05:52 19.4 °C 17.9 °C 1010 hPa NNW 1.6 km/h 6.4 km/h 91 % 0 mm
05:57 19.4 °C 17.9 °C 1010 hPa NW 1.6 km/h 6.4 km/h 91 % 0 mm
06:02 19.4 °C 17.9 °C 1010 hPa Calm   6.4 km/h 91 % 0 mm
06:07 19.5 °C 18 °C 1010 hPa East 1.6 km/h 4.8 km/h 91 % 0 mm
06:12 19.5 °C 18 °C 1010 hPa East 1.6 km/h 4.8 km/h 91 % 0 mm
06:13 19.5 °C 18 °C 1010 hPa Calm   4.8 km/h 91 % 0 mm
06:18 19.4 °C 17.9 °C 1010 hPa Calm   3.2 km/h 91 % 0 mm
06:23 19.4 °C 17.9 °C 1010 hPa Calm   3.2 km/h 91 % 0 mm
06:28 19.4 °C 17.9 °C 1010 hPa Calm   3.2 km/h 91 % 0 mm
06:33 19.3 °C 17.8 °C 1010 hPa Calm   3.2 km/h 91 % 0 mm
06:38 19.3 °C 17.8 °C 1010 hPa Calm   4.8 km/h 91 % 0 mm
06:43 19.2 °C 17.7 °C 1010.4 hPa Calm   4.8 km/h 91 % 0 mm
06:48 19.2 °C 17.9 °C 1010 hPa Calm   4.8 km/h 92 % 0 mm
06:53 19.2 °C 17.9 °C 1010.4 hPa NNW 1.6 km/h 3.2 km/h 92 % 0 mm
06:58 19.1 °C 17.8 °C 1010.7 hPa NW 1.6 km/h 3.2 km/h 92 % 0 mm
07:03 19.1 °C 17.8 °C 1010.7 hPa NW 1.6 km/h 3.2 km/h 92 % 0 mm
07:08 19.2 °C 17.9 °C 1010.7 hPa NW 1.6 km/h 3.2 km/h 92 % 0 mm
07:13 19.3 °C 18 °C 1010.4 hPa NW 3.2 km/h 3.2 km/h 92 % 0 mm
07:18 19.4 °C 18.1 °C 1010.4 hPa NW 1.6 km/h 3.2 km/h 92 % 0 mm
07:23 19.5 °C 18.2 °C 1010.4 hPa North 4.8 km/h 8 km/h 92 % 0 mm
07:28 19.5 °C 18 °C 1010.7 hPa WNW 9.7 km/h 9.7 km/h 91 % 0 mm
07:33 19.4 °C 17.9 °C 1010.4 hPa NW 4.8 km/h 11.3 km/h 91 % 0 mm
07:38 19.4 °C 17.9 °C 1010.4 hPa WNW 6.4 km/h 11.3 km/h 91 % 0 mm
07:43 19.4 °C 17.9 °C 1010.7 hPa WNW 6.4 km/h 11.3 km/h 91 % 0 mm
07:48 19.3 °C 17.8 °C 1010.7 hPa NW 3.2 km/h 9.7 km/h 91 % 0 mm
07:53 19.3 °C 17.8 °C 1010.7 hPa NW 8 km/h 17.7 km/h 91 % 0 mm
07:58 19.3 °C 17.8 °C 1010.7 hPa NW 11.3 km/h 17.7 km/h 91 % 0 mm
08:03 19.2 °C 17.7 °C 1010.4 hPa North 4.8 km/h 17.7 km/h 91 % 0 mm
08:08 19.2 °C 17.7 °C 1010.4 hPa NW 8 km/h 14.5 km/h 91 % 0 mm
08:13 19.3 °C 17.8 °C 1010.4 hPa NNE 4.8 km/h 14.5 km/h 91 % 0 mm
08:18 19.4 °C 17.7 °C 1010.4 hPa NNW 6.4 km/h 12.9 km/h 90 % 0 mm
08:23 19.4 °C 17.7 °C 1010.4 hPa Calm   12.9 km/h 90 % 0 mm
08:28 19.6 °C 17.9 °C 1010.4 hPa NNW 3.2 km/h 11.3 km/h 90 % 0 mm
08:33 19.8 °C 17.9 °C 1010.4 hPa Calm   11.3 km/h 89 % 0 mm
08:38 19.9 °C 18 °C 1010.4 hPa Calm   6.4 km/h 89 % 0 mm
08:43 20.1 °C 18 °C 1010.4 hPa North 3.2 km/h 8 km/h 88 % 0 mm
08:48 20.2 °C 18.1 °C 1010.4 hPa NW 1.6 km/h 8 km/h 88 % 0 mm
08:50 20.2 °C 18 °C 1010.4 hPa North 3.2 km/h 8 km/h 87 % 0 mm
08:55 20.2 °C 18 °C 1010.4 hPa NNW 4.8 km/h 8 km/h 87 % 0 mm
09:00 20.4 °C 18.2 °C 1010.4 hPa Calm   8 km/h 87 % 0 mm
09:05 20.7 °C 18.3 °C 1010.4 hPa NE 1.6 km/h 8 km/h 86 % 0 mm
09:10 20.8 °C 18 °C 1010.4 hPa Calm   8 km/h 84 % 0 mm
09:15 21.1 °C 18.5 °C 1010.4 hPa Calm   6.4 km/h 85 % 0 mm
09:20 21.6 °C 18.8 °C 1010.4 hPa North 3.2 km/h 8 km/h 84 % 0 mm
09:25 21.9 °C 18.5 °C 1010.4 hPa Calm   8 km/h 81 % 0 mm
09:30 22.1 °C 18.5 °C 1010.4 hPa ENE 3.2 km/h 8 km/h 80 % 0 mm
09:35 22.1 °C 18.5 °C 1010.4 hPa Calm   8 km/h 80 % 0 mm
09:40 22.4 °C 18.8 °C 1010.4 hPa ESE 1.6 km/h 8 km/h 80 % 0 mm
09:45 22.6 °C 18.8 °C 1010.4 hPa East 4.8 km/h 6.4 km/h 79 % 0 mm
09:50 22.6 °C 18.6 °C 1010.4 hPa NNW 1.6 km/h 6.4 km/h 78 % 0 mm
09:55 22.7 °C 18.5 °C 1010.4 hPa East 4.8 km/h 6.4 km/h 77 % 0 mm
10:00 22.7 °C 18.7 °C 1010.4 hPa Calm   6.4 km/h 78 % 0 mm
10:05 23.3 °C 19.2 °C 1010.4 hPa ESE 1.6 km/h 6.4 km/h 78 % 0 mm
10:10 23.8 °C 19.5 °C 1010.4 hPa East 3.2 km/h 6.4 km/h 77 % 0 mm
10:15 23.8 °C 18.4 °C 1010.4 hPa NNW 3.2 km/h 9.7 km/h 72 % 0 mm
10:20 23.8 °C 19.3 °C 1010.4 hPa Calm   9.7 km/h 76 % 0 mm
10:25 24.3 °C 19.6 °C 1010.7 hPa Calm   9.7 km/h 75 % 0 mm
10:30 24.6 °C 19.7 °C 1010.7 hPa NNW 3.2 km/h 9.7 km/h 74 % 0 mm
10:35 24.4 °C 19.2 °C 1010.7 hPa NNW 3.2 km/h 9.7 km/h 73 % 0 mm
10:40 24.3 °C 19.1 °C 1010.7 hPa NW 6.4 km/h 11.3 km/h 73 % 0 mm
10:45 24.2 °C 19.3 °C 1010.7 hPa NNW 4.8 km/h 11.3 km/h 74 % 0 mm
10:50 24.3 °C 19.4 °C 1010.7 hPa NNW 4.8 km/h 11.3 km/h 74 % 0 mm
10:55 24.6 °C 19.7 °C 1010.7 hPa NW 4.8 km/h 9.7 km/h 74 % 0 mm
11:00 24.6 °C 19.7 °C 1010.7 hPa NW 14.5 km/h 14.5 km/h 74 % 0 mm
11:05 24.6 °C 19.2 °C 1010.7 hPa NNW 8 km/h 16.1 km/h 72 % 0 mm
11:10 24.7 °C 19.5 °C 1010.7 hPa NNW 4.8 km/h 16.1 km/h 73 % 0 mm
11:15 24.8 °C 19.6 °C 1010.7 hPa NW 6.4 km/h 16.1 km/h 73 % 0 mm
11:20 25.2 °C 20 °C 1010.7 hPa North 6.4 km/h 14.5 km/h 73 % 0 mm
11:25 25.1 °C 19.5 °C 1010.7 hPa NNW 1.6 km/h 12.9 km/h 71 % 0 mm
11:30 25.2 °C 19.1 °C 1010.7 hPa NW 8 km/h 12.9 km/h 69 % 0 mm
11:35 25.3 °C 19.9 °C 1010.7 hPa NW 4.8 km/h 12.9 km/h 72 % 0 mm
11:40 25.5 °C 20.1 °C 1010.7 hPa WNW 8 km/h 12.9 km/h 72 % 0 mm
11:45 25.7 °C 20 °C 1010.4 hPa WNW 1.6 km/h 12.9 km/h 71 % 0 mm
11:50 26 °C 19.9 °C 1010.4 hPa NW 3.2 km/h 12.9 km/h 69 % 0 mm
11:55 26.1 °C 20 °C 1010.4 hPa NNW 3.2 km/h 12.9 km/h 69 % 0 mm
12:00 26.3 °C 19.7 °C 1010.4 hPa WNW 9.7 km/h 14.5 km/h 67 % 0 mm
12:05 26.4 °C 20.7 °C 1010.4 hPa SW 3.2 km/h 16.1 km/h 71 % 0 mm
12:10 26.7 °C 20.3 °C 1010.4 hPa WNW 6.4 km/h 16.1 km/h 68 % 0 mm
12:15 26.8 °C 19.9 °C 1010.4 hPa NNW 4.8 km/h 16.1 km/h 66 % 0 mm
12:20 26.8 °C 19.9 °C 1010 hPa NNW 9.7 km/h 16.1 km/h 66 % 0 mm
12:25 26.8 °C 20.4 °C 1010 hPa NE 4.8 km/h 16.1 km/h 68 % 0 mm
12:30 26.9 °C 19.3 °C 1010 hPa West 3.2 km/h 19.3 km/h 63 % 0 mm
12:35 27.1 °C 20 °C 1010 hPa North 11.3 km/h 19.3 km/h 65 % 0 mm
12:40 27.1 °C 20 °C 1009.7 hPa NNW 1.6 km/h 19.3 km/h 65 % 0 mm
12:45 26.9 °C 20 °C 1009.7 hPa NW 3.2 km/h 14.5 km/h 66 % 0 mm
12:50 27.3 °C 20.1 °C 1009.7 hPa NW 3.2 km/h 16.1 km/h 65 % 0 mm
12:55 27.4 °C 20 °C 1009.7 hPa NW 8 km/h 16.1 km/h 64 % 0 mm
13:00 27.5 °C 20.3 °C 1009.7 hPa NW 8 km/h 17.7 km/h 65 % 0 mm
13:05 27.4 °C 19.7 °C 1009.7 hPa WNW 8 km/h 19.3 km/h 63 % 0 mm
13:10 27.4 °C 20.2 °C 1009.4 hPa WNW 4.8 km/h 19.3 km/h 65 % 0 mm
13:15 27.5 °C 20.6 °C 1009.4 hPa ENE 3.2 km/h 19.3 km/h 66 % 0 mm
13:20 27.6 °C 20.2 °C 1009 hPa Calm   16.1 km/h 64 % 0 mm
13:25 28.1 °C 20.6 °C 1009 hPa North 11.3 km/h 12.9 km/h 64 % 0 mm
13:30 28.3 °C 20.8 °C 1008.7 hPa NNW 8 km/h 14.5 km/h 64 % 0 mm
13:35 28.1 °C 20.4 °C 1008.7 hPa WNW 4.8 km/h 14.5 km/h 63 % 0 mm
13:40 28.1 °C 20.1 °C 1008.7 hPa NNW 8 km/h 14.5 km/h 62 % 0 mm
13:45 27.9 °C 19.9 °C 1008.7 hPa NNE 1.6 km/h 11.3 km/h 62 % 0 mm
13:50 28.3 °C 20.3 °C 1008.7 hPa East 3.2 km/h 11.3 km/h 62 % 0 mm
13:55 28.8 °C 20.5 °C 1008.7 hPa East 3.2 km/h 8 km/h 61 % 0 mm
14:00 28.8 °C 20.5 °C 1008.7 hPa NW 8 km/h 17.7 km/h 61 % 0 mm
14:05 28.7 °C 20.4 °C 1008.7 hPa ENE 1.6 km/h 27.4 km/h 61 % 0 mm
14:10 28.7 °C 20.4 °C 1008.7 hPa SW 1.6 km/h 27.4 km/h 61 % 0 mm
14:12 28.7 °C 20.7 °C 1008.7 hPa WNW 3.2 km/h 27.4 km/h 62 % 0 mm
14:17 29.2 °C 20.1 °C 1008.7 hPa NW 6.4 km/h 27.4 km/h 58 % 0 mm
14:22 29.2 °C 20.1 °C 1008.4 hPa NW 4.8 km/h 11.3 km/h 58 % 0 mm
14:27 29.1 °C 20 °C 1008.4 hPa NW 1.6 km/h 11.3 km/h 58 % 0 mm
14:32 29.2 °C 20.6 °C 1008.4 hPa NW 3.2 km/h 11.3 km/h 60 % 0 mm
14:37 29.6 °C 20.7 °C 1008.4 hPa SW 1.6 km/h 11.3 km/h 59 % 0 mm
14:42 30.1 °C 21.2 °C 1008.4 hPa ESE 1.6 km/h 8 km/h 59 % 0 mm
14:47 30.2 °C 20.4 °C 1008 hPa NW 1.6 km/h 8 km/h 56 % 0 mm
14:52 29.7 °C 20.6 °C 1008 hPa ENE 3.2 km/h 8 km/h 58 % 0 mm
14:57 29.9 °C 20.5 °C 1008 hPa NW 4.8 km/h 8 km/h 57 % 0 mm
15:02 29.8 °C 20.4 °C 1008 hPa NW 6.4 km/h 12.9 km/h 57 % 0 mm
15:03 29.8 °C 20.4 °C 1008 hPa NW 11.3 km/h 12.9 km/h 57 % 0 mm
15:08 29.6 °C 20.2 °C 1008 hPa NNE 3.2 km/h 12.9 km/h 57 % 0 mm
15:13 29.7 °C 20.3 °C 1008 hPa WNW 4.8 km/h 12.9 km/h 57 % 0 mm
15:18 29.7 °C 20.3 °C 1007.7 hPa NW 1.6 km/h 12.9 km/h 57 % 0 mm
15:23 29.9 °C 20.2 °C 1007.7 hPa NNW 9.7 km/h 9.7 km/h 56 % 0 mm
15:28 30.2 °C 20.7 °C 1007.7 hPa West 3.2 km/h 9.7 km/h 57 % 0 mm
15:33 30 °C 20 °C 1007.7 hPa NW 4.8 km/h 9.7 km/h 55 % 0 mm
15:38 29.8 °C 20.4 °C 1007.7 hPa NW 6.4 km/h 9.7 km/h 57 % 0 mm
15:43 29.5 °C 20.1 °C 1007.7 hPa NNW 4.8 km/h 9.7 km/h 57 % 0 mm
15:48 29.5 °C 20.1 °C 1007.7 hPa NW 3.2 km/h 9.7 km/h 57 % 0 mm
15:53 29.5 °C 19.8 °C 1007.3 hPa NNW 8 km/h 14.5 km/h 56 % 0 mm
15:58 29.3 °C 19.6 °C 1007.3 hPa WNW 4.8 km/h 14.5 km/h 56 % 0 mm
16:03 29.1 °C 20 °C 1007.3 hPa NW 3.2 km/h 14.5 km/h 58 % 0 mm
16:08 28.9 °C 19.2 °C 1007.3 hPa WNW 11.3 km/h 14.5 km/h 56 % 0 mm
16:13 29.1 °C 19.7 °C 1007.3 hPa NW 4.8 km/h 16.1 km/h 57 % 0 mm
16:18 28.9 °C 19.2 °C 1007.3 hPa Calm   16.1 km/h 56 % 0 mm
16:23 29.2 °C 19.2 °C 1007.3 hPa NW 3.2 km/h 16.1 km/h 55 % 0 mm
16:28 29.1 °C 19.4 °C 1007.3 hPa WNW 8 km/h 12.9 km/h 56 % 0 mm
16:33 29.1 °C 19.4 °C 1007.3 hPa NNW 9.7 km/h 11.3 km/h 56 % 0 mm
16:38 29.4 °C 19.4 °C 1007.3 hPa North 9.7 km/h 12.9 km/h 55 % 0 mm
16:43 29.7 °C 19.7 °C 1007.3 hPa WNW 9.7 km/h 12.9 km/h 55 % 0 mm
16:48 29.7 °C 19.1 °C 1007 hPa NW 4.8 km/h 12.9 km/h 53 % 0 mm
16:53 29.9 °C 19.3 °C 1007 hPa West 6.4 km/h 12.9 km/h 53 % 0 mm
16:58 29.4 °C 18.8 °C 1007 hPa NNW 6.4 km/h 14.5 km/h 53 % 0 mm
17:03 29.3 °C 19 °C 1007 hPa NW 3.2 km/h 14.5 km/h 54 % 0 mm
17:08 29.4 °C 18.8 °C 1007 hPa NW 6.4 km/h 16.1 km/h 53 % 0 mm
17:13 29.5 °C 18.6 °C 1007 hPa North 1.6 km/h 16.1 km/h 52 % 0 mm
17:18 29.6 °C 19 °C 1007 hPa WNW 6.4 km/h 16.1 km/h 53 % 0 mm
17:24 29.6 °C 19.3 °C 1007 hPa WNW 1.6 km/h 11.3 km/h 54 % 0 mm
17:29 29.6 °C 19.3 °C 1007 hPa NNW 3.2 km/h 11.3 km/h 54 % 0 mm
17:34 29.3 °C 19 °C 1007 hPa NNW 3.2 km/h 11.3 km/h 54 % 0 mm
17:39 28.9 °C 19.2 °C 1007 hPa NW 9.7 km/h 11.3 km/h 56 % 0 mm
17:44 28.7 °C 19.3 °C 1006.7 hPa NNW 8 km/h 14.5 km/h 57 % 0 mm
17:49 28.9 °C 19.8 °C 1006.7 hPa NW 1.6 km/h 14.5 km/h 58 % 0 mm
17:54 29.1 °C 19.7 °C 1006.7 hPa North 6.4 km/h 14.5 km/h 57 % 0 mm
17:59 29.2 °C 19.8 °C 1006.3 hPa NW 6.4 km/h 12.9 km/h 57 % 0 mm
18:04 29.2 °C 19.8 °C 1006.3 hPa NNW 6.4 km/h 12.9 km/h 57 % 0 mm
18:09 29.3 °C 19.6 °C 1006.3 hPa NW 6.4 km/h 11.3 km/h 56 % 0 mm
18:14 29.2 °C 19.8 °C 1006.3 hPa NNW 3.2 km/h 11.3 km/h 57 % 0 mm
18:19 29.2 °C 19.5 °C 1006.3 hPa NNW 3.2 km/h 12.9 km/h 56 % 0 mm
18:24 28.8 °C 19.4 °C 1006.3 hPa NNW 4.8 km/h 12.9 km/h 57 % 0 mm
18:29 28.4 °C 19.3 °C 1006.7 hPa NW 6.4 km/h 12.9 km/h 58 % 0 mm
18:34 28.2 °C 18.9 °C 1006.7 hPa WNW 4.8 km/h 9.7 km/h 57 % 0 mm
18:39 28.2 °C 19.2 °C 1006.7 hPa NNW 4.8 km/h 9.7 km/h 58 % 0 mm
18:44 28 °C 19.2 °C 1006.7 hPa NW 1.6 km/h 12.9 km/h 59 % 0 mm
18:45 27.9 °C 19.1 °C 1006.7 hPa NNW 4.8 km/h 12.9 km/h 59 % 0 mm
18:50 27.8 °C 18.8 °C 1006.7 hPa WNW 4.8 km/h 12.9 km/h 58 % 0 mm
18:55 27.6 °C 18.9 °C 1006.3 hPa NNW 6.4 km/h 12.9 km/h 59 % 0 mm
19:00 27.4 °C 18.9 °C 1006.3 hPa NNW 4.8 km/h 11.3 km/h 60 % 0 mm
19:06 27.3 °C 18.9 °C 1006 hPa NNW 4.8 km/h 12.9 km/h 60 % 0 mm
19:11 27.2 °C 18.8 °C 1006.7 hPa NW 6.4 km/h 14.5 km/h 60 % 0 mm
19:16 27.2 °C 18.8 °C 1006.7 hPa WNW 4.8 km/h 14.5 km/h 60 % 0 mm
19:21 27.1 °C 18.7 °C 1007.3 hPa WNW 8 km/h 14.5 km/h 60 % 0 mm
19:26 27 °C 18.8 °C 1007.3 hPa WNW 14.5 km/h 16.1 km/h 61 % 0 mm
19:31 26.6 °C 19.2 °C 1007.7 hPa WNW 11.3 km/h 22.5 km/h 64 % 0 mm
19:36 25.3 °C 19 °C 1008 hPa WNW 19.3 km/h 29 km/h 68 % 0 mm
19:41 24.3 °C 18.9 °C 1008.7 hPa NW 14.5 km/h 29 km/h 72 % 0 mm
19:46 23.7 °C 19.2 °C 1008.4 hPa NW 16.1 km/h 29 km/h 76 % 0 mm
19:51 22.7 °C 19.1 °C 1008.4 hPa WNW 19.3 km/h 41.8 km/h 80 % 0 mm
19:56 21.9 °C 19.3 °C 1008 hPa NNW 9.7 km/h 41.8 km/h 85 % 0 mm
20:01 21.4 °C 19.1 °C 1008 hPa NW 16.1 km/h 41.8 km/h 87 % 0 mm
20:06 21 °C 18.8 °C 1008.4 hPa NW 24.1 km/h 41.8 km/h 87 % 0 mm
20:11 20.6 °C 18.4 °C 1008.7 hPa WNW 20.9 km/h 32.2 km/h 87 % 0 mm
20:16 20.2 °C 18.1 °C 1008.7 hPa NW 12.9 km/h 37 km/h 88 % 0 mm
20:21 19.8 °C 17.6 °C 1008.4 hPa NNW 14.5 km/h 37 km/h 87 % 0 mm
20:26 19.8 °C 17.8 °C 1008.4 hPa West 12.9 km/h 37 km/h 88 % 0 mm
20:31 19.7 °C 17.7 °C 1008.4 hPa West 8 km/h 30.6 km/h 88 % 0 mm
20:36 19.7 °C 17.8 °C 1008.7 hPa NNW 6.4 km/h 27.4 km/h 89 % 0 mm
20:41 19.7 °C 17.8 °C 1009 hPa NNW 8 km/h 22.5 km/h 89 % 0 mm
20:46 19.7 °C 18 °C 1009 hPa NW 16.1 km/h 22.5 km/h 90 % 0 mm
20:51 19.7 °C 18 °C 1009 hPa West 16.1 km/h 20.9 km/h 90 % 0 mm
20:56 19.7 °C 18 °C 1009 hPa WNW 14.5 km/h 24.1 km/h 90 % 0 mm
21:01 19.7 °C 18 °C 1009 hPa WNW 16.1 km/h 25.7 km/h 90 % 0 mm
21:06 19.7 °C 18.2 °C 1009 hPa NW 6.4 km/h 25.7 km/h 91 % 0 mm
21:11 19.7 °C 18.2 °C 1009.4 hPa NNW 4.8 km/h 25.7 km/h 91 % 0 mm
21:16 19.6 °C 18.1 °C 1009.4 hPa NW 12.9 km/h 19.3 km/h 91 % 0 mm
21:21 19.7 °C 18.4 °C 1009.7 hPa WNW 9.7 km/h 17.7 km/h 92 % 0 mm
21:26 19.7 °C 18.4 °C 1009.7 hPa NW 4.8 km/h 17.7 km/h 92 % 0 mm
21:31 19.7 °C 18.2 °C 1010 hPa NW 11.3 km/h 17.7 km/h 91 % 0 mm
21:36 19.7 °C 18.2 °C 1010 hPa WNW 3.2 km/h 17.7 km/h 91 % 0 mm
21:42 19.8 °C 18.3 °C 1010 hPa NNW 6.4 km/h 14.5 km/h 91 % 0 mm
21:47 19.8 °C 18.3 °C 1010 hPa WNW 11.3 km/h 20.9 km/h 91 % 0 mm
21:51 19.8 °C 18.3 °C 1010.4 hPa WNW 6.4 km/h 20.9 km/h 91 % 0 mm
21:57 19.8 °C 18.3 °C 1010.4 hPa NW 6.4 km/h 20.9 km/h 91 % 0 mm
22:02 19.8 °C 18.3 °C 1010.4 hPa WSW 11.3 km/h 19.3 km/h 91 % 0 mm
22:07 19.6 °C 18.3 °C 1010.4 hPa NNW 12.9 km/h 19.3 km/h 92 % 0.25 mm
22:12 19.5 °C 18.3 °C 1011.1 hPa NW 9.7 km/h 19.3 km/h 93 % 0.25 mm
22:17 19.4 °C 18.4 °C 1011.1 hPa NW 12.9 km/h 19.3 km/h 94 % 0.51 mm
22:22 19.3 °C 18.1 °C 1011.4 hPa NNW 6.4 km/h 17.7 km/h 93 % 0.51 mm
22:27 19.1 °C 17.8 °C 1011.7 hPa NW 9.7 km/h 17.7 km/h 92 % 0.51 mm
22:32 19 °C 17.7 °C 1011.7 hPa WNW 4.8 km/h 20.9 km/h 92 % 0.51 mm
22:37 18.9 °C 17.4 °C 1011.7 hPa NW 4.8 km/h 20.9 km/h 91 % 0.51 mm
22:42 18.9 °C 17.6 °C 1011.7 hPa NNW 1.6 km/h 20.9 km/h 92 % 0.51 mm
22:47 18.8 °C 17.5 °C 1012.1 hPa NNW 6.4 km/h 11.3 km/h 92 % 0.51 mm
22:52 18.6 °C 17.1 °C 1012.1 hPa NW 3.2 km/h 9.7 km/h 91 % 0.51 mm
22:57 18.6 °C 17.1 °C 1012.1 hPa WNW 1.6 km/h 11.3 km/h 91 % 0.51 mm
23:02 18.4 °C 16.9 °C 1012.1 hPa WNW 4.8 km/h 11.3 km/h 91 % 0.51 mm
23:07 18.3 °C 16.8 °C 1012.1 hPa WNW 3.2 km/h 12.9 km/h 91 % 0.25 mm
23:12 18.3 °C 16.8 °C 1012.1 hPa NW 4.8 km/h 12.9 km/h 91 % 0 mm
23:17 18.2 °C 16.7 °C 1012.1 hPa NW 3.2 km/h 12.9 km/h 91 % 0 mm
23:22 18.1 °C 16.6 °C 1012.1 hPa NW 3.2 km/h 11.3 km/h 91 % 0 mm
23:27 18.1 °C 16.8 °C 1012.1 hPa NW 3.2 km/h 11.3 km/h 92 % 0 mm
23:32 18.1 °C 16.8 °C 1012.1 hPa NW 4.8 km/h 8 km/h 92 % 0 mm
23:37 18 °C 16.7 °C 1012.1 hPa Calm   12.9 km/h 92 % 0 mm
23:42 17.9 °C 16.6 °C 1012.1 hPa NW 3.2 km/h 12.9 km/h 92 % 0 mm
23:47 17.8 °C 16.5 °C 1012.1 hPa NW 3.2 km/h 12.9 km/h 92 % 0 mm
23:52 17.8 °C 16.7 °C 1012.1 hPa NNW 3.2 km/h 6.4 km/h 93 % 0 mm
23:57 17.7 °C 16.6 °C 1012.1 hPa NW 1.6 km/h 9.7 km/h 93 % 0 mm
Spring, Texas: Villages of Bridgestone
Compliments of Weather Underground - 2.75 mb

Script developed by  Jim McMurry - jmcmurry@mwt.net Adapted for the template by  Wim van der Kuil - Leuven-Template.eu

You find our weather info also at:

UK Metoffice

WeatherCloud

Weather Underground

Mid-South Weather Network

AWEKAS

Citizen Weather Observer Program (CWOP)

HAMweather, WeatherForYou, PWS Weather

Equipment we use:

Weather-station
Davis Vantage Vue

Weather-program
Meteohub

Weather-server
Debian 7.9 x86 (Guest)

Provider
DreamHost

Davis Vantage Vue

Meteohub

Debian 7.9 x86 (Guest)

DreamHost